CST,Max TemperatureF,Mean TemperatureF,Min TemperatureF,Max Dew PointF,MeanDew PointF,Min DewpointF,Max Humidity, Mean Humidity, Min Humidity, Max Sea Level PressureIn, Mean Sea Level PressureIn, Min Sea Level PressureIn, Max VisibilityMiles, Mean VisibilityMiles, Min VisibilityMiles, Max Wind SpeedMPH, Mean Wind SpeedMPH, Max Gust SpeedMPH,PrecipitationIn, CloudCover, Events, WindDirDegrees
2011-11-1,60,46,34,41,36,31,92,71,51,30.06,29.99,29.90,10,9,5,12,7,,0.00,3,,166
2011-11-2,48,44,39,40,37,31,86,77,66,30.19,30.10,29.97,10,10,9,16,8,21,0.01,6,Rain,8
2011-11-3,50,39,30,31,28,25,89,68,44,30.30,30.24,30.18,10,10,10,10,6,17,0.00,0,,6
2011-11-4,51,38,27,32,27,23,85,69,41,30.35,30.29,30.21,10,10,10,10,4,,0.00,0,,149
2011-11-5,54,43,33,39,34,28,92,72,50,30.22,30.08,29.92,10,9,4,17,11,,0.00,0,,159
2011-11-6,57,49,41,45,38,28,86,71,53,30.01,29.84,29.74,10,9,6,21,12,31,0.00,3,,195
2011-11-7,53,43,33,27,23,18,75,50,27,30.25,30.16,30.04,10,10,10,16,9,24,0.00,0,,251
2011-11-8,43,40,37,32,29,25,67,62,55,30.22,30.15,30.09,10,10,10,10,5,,0.00,7,,45
2011-11-9,39,36,33,36,30,24,100,84,67,30.08,29.88,29.78,10,5,0,22,13,30,0.08,7,Fog-Snow,346
2011-11-10,36,33,30,29,27,24,88,78,70,30.00,29.92,29.82,10,8,2,18,11,23,0.00,8,Snow,292
2011-11-11,41,34,26,28,24,21,87,72,51,29.98,29.80,29.67,10,8,1,14,7,21,0.00,4,Snow,203
2011-11-12,57,42,26,36,31,23,88,71,42,29.67,29.57,29.35,10,10,6,13,5,,0.00,0,,171
2011-11-13,52,46,37,39,36,30,80,71,61,29.52,29.32,29.24,10,10,10,13,8,18,0.00,5,,233
2011-11-14,48,40,32,41,31,24,88,71,55,29.67,29.54,29.47,10,10,10,14,7,,0.01,2,Rain,220
2011-11-15,53,42,30,38,28,19,89,64,47,29.85,29.69,29.60,10,10,6,18,8,32,0.13,2,Rain,237
2011-11-16,35,31,26,19,16,13,69,56,43,30.09,29.99,29.85,10,10,10,18,15,28,0.00,4,,285
2011-11-17,28,24,19,14,12,10,74,61,47,30.14,30.11,30.05,10,10,10,14,9,20,0.00,4,,261
2011-11-18,46,36,25,26,22,14,75,60,44,30.03,29.81,29.70,10,10,10,21,11,26,0.00,1,,189
2011-11-19,36,32,28,32,30,25,93,86,75,29.95,29.75,29.66,10,6,2,13,5,20,0.02,7,Rain-Snow,37
2011-11-20,32,30,28,27,23,20,86,76,61,30.36,30.25,29.98,10,10,10,13,8,,0.00,8,,12
2011-11-21,37,32,28,28,26,23,85,75,65,30.39,30.30,30.23,10,9,6,12,4,,0.00,7,,164
2011-11-22,39,33,27,32,27,23,92,83,70,30.30,30.15,30.04,9,6,3,9,6,,0.00,4,,58
2011-11-23,39,33,27,36,32,25,93,87,79,30.19,30.14,30.07,6,4,2,12,5,17,0.00,8,,242
2011-11-24,53,45,37,40,38,35,93,83,61,30.09,29.97,29.80,10,6,2,14,10,21,0.00,4,,200
2011-11-25,50,46,43,43,41,37,93,80,73,29.81,29.77,29.75,10,8,2,13,8,20,0.00,6,,194
2011-11-26,48,42,35,47,43,31,96,92,82,29.90,29.75,29.69,10,4,1,23,8,28,0.04,8,Rain,251
2011-11-27,35,32,28,30,24,21,82,74,66,30.20,30.07,29.87,10,10,10,22,15,31,0.00,8,,345
2011-11-28,34,30,26,25,22,19,82,75,64,30.20,30.14,30.06,10,10,10,12,5,,0.00,4,,262
2011-11-29,36,28,21,25,19,16,82,63,46,30.24,30.17,30.08,10,10,10,18,13,25,0.00,0,,356
2011-11-30,43,30,18,18,15,12,81,55,30,30.08,30.03,29.96,10,10,10,10,6,,0.00,3,,243